Location: Gro�bocka
(50.8204°N, 11.9702°E)
Time: 07:55:37
(UTC+00:00)

DEBRIS - Pass Details

Date: 29 October 2020
Orbit: 307 x 15219 km, 49.4° (Epoch: 01 December)

Event Time Altitude Azimuth Distance (km) Brightness Sun altitude
Rises 17:25:42 0° 235° (SW) 12,386 10.7 -15.3°
Reaches altitude 10° 17:38:42 10° 235° (SW) 8,598 9.7 -17.4°
Maximum altitude 17:58:31 60° 163° (SSE) 1,597 4.9 -20.5°
Enters shadow 18:00:59 36° 100° (E) 1,594 4.6 -20.9°
